| DS18B20 | SHTC3 | PZEM-004T | WiFi | ||||||||
|---|---|---|---|---|---|---|---|---|---|---|---|
| ID | Date d/m/Y & Time | data1 สูง | data2 ต่ำ | data3 นอก | temp pcb | hum pcb | Volt | Amp | Watt | rssi | Time |
| 15678 | 24/08/2026 21:33:30 | 31.3  | 31.3  | 29.5  | 32.3  | 65.8  | 227.4  | 0.04  | 4.5  | -80  | 21:33 |
| 15677 | 24/08/2026 21:28:46 | 31.3  | 31.4  | 29.6  | 32.3  | 65.8  | 229.2  | 0.04  | 4.5  | -80  | 21:28 |
| 15676 | 24/08/2026 21:24:03 | 31.4  | 31.4  | 29.7  | 32.5  | 65.8  | 227.2  | 0.04  | 4.5  | -80  | 21:24 |
| 15675 | 24/08/2026 21:19:20 | 31.4  | 31.4  | 29.6  | 32.4  | 65.7  | 229.1  | 0.04  | 4.6  | -77  | 21:19 |
| 15674 | 24/08/2026 21:14:35 | 31.4  | 31.4  | 29.5  | 32.3  | 65.7  | 229.8  | 0.04  | 4.5  | -79  | 21:14 |
| 15673 | 24/08/2026 21:09:51 | 31.4  | 31.4  | 29.2  | 32.5  | 65.8  | 229.5  | 0.04  | 4.5  | -81  | 21:09 |
| 15672 | 24/08/2026 21:05:08 | 31.4  | 31.4  | 29.2  | 32.6  | 65.8  | 228.7  | 0.04  | 4.5  | -80  | 21:05 |
| 15671 | 24/08/2026 21:00:24 | 31.5  | 31.5  | 29.4  | 32.6  | 65.7  | 229.9  | 0.04  | 4.5  | -78  | 21:00 |
| 15670 | 24/08/2026 20:55:40 | 31.5  | 31.5  | 29.5  | 32.6  | 65.8  | 229.5  | 0.04  | 4.5  | -80  | 20:55 |
| 15669 | 24/08/2026 20:50:57 | 31.5  | 31.6  | 29.8  | 32.4  | 65.7  | 229.2  | 0.04  | 4.5  | -81  | 20:50 |
| 15668 | 24/08/2026 20:46:13 | 31.6  | 31.6  | 29.8  | 32.6  | 65.7  | 228.7  | 0.04  | 4.5  | -81  | 20:46 |
| 15667 | 24/08/2026 20:41:30 | 31.6  | 31.6  | 29.9  | 32.6  | 65.8  | 228.1  | 0.04  | 4.5  | -82  | 20:41 |
| 15666 | 24/08/2026 20:36:45 | 31.6  | 31.6  | 29.7  | 32.6  | 65.6  | 229.6  | 0.04  | 4.5  | -80  | 20:36 |
| 15665 | 24/08/2026 20:32:01 | 31.6  | 31.6  | 29.7  | 32.6  | 65.6  | 229.9  | 0.04  | 4.5  | -81  | 20:32 |
| 15664 | 24/08/2026 20:27:19 | 31.6  | 31.6  | 29.9  | 32.6  | 65.6  | 229.6  | 0.04  | 4.5  | -81  | 20:27 |
| 15663 | 24/08/2026 20:22:30 | 31.6  | 31.7  | 29.9  | 32.6  | 65.6  | 229.4  | 0.04  | 4.5  | -80  | 20:22 |
| 15662 | 24/08/2026 20:17:45 | 31.6  | 31.7  | 30.0  | 32.6  | 65.7  | 230.0  | 0.04  | 4.5  | -79  | 20:17 |
| 15661 | 24/08/2026 20:13:02 | 31.6  | 31.8  | 30.0  | 32.6  | 65.5  | 229.6  | 0.04  | 4.5  | -79  | 20:13 |
| 15660 | 24/08/2026 20:08:18 | 31.6  | 31.8  | 30.0  | 32.7  | 65.6  | 229.6  | 0.04  | 4.5  | -81  | 20:08 |
| 15659 | 24/08/2026 20:03:35 | 31.6  | 31.8  | 30.0  | 32.7  | 65.5  | 229.9  | 0.04  | 4.5  | -79  | 20:03 |
| 15658 | 24/08/2026 19:58:51 | 31.7  | 31.8  | 30.1  | 32.7  | 65.6  | 230.7  | 0.04  | 4.5  | -81  | 19:58 |
| 15657 | 24/08/2026 19:54:08 | 31.7  | 31.8  | 30.2  | 32.5  | 65.7  | 230.8  | 0.04  | 4.6  | -79  | 19:54 |
| 15656 | 24/08/2026 19:49:24 | 31.7  | 31.9  | 30.1  | 32.6  | 65.7  | 231.0  | 0.04  | 4.6  | -78  | 19:49 |
| 15655 | 24/08/2026 19:44:40 | 31.7  | 31.9  | 30.0  | 32.7  | 65.7  | 230.7  | 0.04  | 4.5  | -79  | 19:44 |